DW8852 Weather Reports


time (UTC)temp
C
wind
direction
speed
KPH
gust
KPH
rain 1hr
cm
rain 24hr
cm
rain mn
cm
humidity
%
barometer
mb
20260504081558 13 215 6.4 12.9 0.00 0.00 0.00 45 989.5
20260504044527 13 229 6.4 12.9 0.00 0.00 0.00 44 993.2
20260504043037 13 229 3.2 11.3 0.00 0.00 0.00 44 993.5
20260504041523 14 229 4.8 9.7 0.00 0.00 0.00 41 993.7
20260504040024 15 229 4.8 9.7 0.00 0.00 0.00 39 994.0
20260504034518 15 229 6.4 9.7 0.00 0.00 0.00 38 994.3
20260504033015 15 229 3.2 9.7 0.00 0.00 0.00 36 994.5
20260504031514 15 229 3.2 9.7 0.00 0.00 0.00 36 994.8
20260504030016 16 229 3.2 9.7 0.00 0.00 0.00 35 994.9
20260504024514 16 229 3.2 9.7 0.00 0.00 0.00 34 994.9
20260504023012 16 229 3.2 8.0 0.00 0.00 0.00 34 995.1
20260504021514 17 229 1.6 6.4 0.00 0.00 0.00 33 995.1
20260504020010 17 229 1.6 6.4 0.00 0.00 0.00 31 995.1
20260504014509 18 229 1.6 6.4 0.00 0.00 0.00 29 995.2
20260504013009 18 229 1.6 6.4 0.00 0.00 0.00 27 995.4
20260504011517 19 229 1.6 11.3 0.00 0.00 0.00 26 995.4
20260504010007 19 229 1.6 16.1 0.00 0.00 0.00 25 995.3
20260504004506 20 266 4.8 12.9 0.00 0.00 0.00 25 995.5
20260504003006 20 360 4.8 11.3 0.00 0.00 0.00 26 995.5
20260504001505 20 244 3.2 14.5 0.00 0.00 0.00 25 995.5
20260504000004 20 270 6.4 14.5 0.00 0.00 0.00 24 995.6
20260503234506 21 317 4.8 12.9 0.00 0.00 0.00 23 995.6
20260503233004 21 246 4.8 11.3 0.00 0.00 0.00 24 995.6
20260503231502 21 290 3.2 12.9 0.00 0.00 0.00 24 996.0
20260503230002 21 45 6.4 14.5 0.00 0.00 0.00 24 995.9
20260503224600 21 318 6.4 16.1 0.00 0.00 0.00 23 996.0
20260503223100 21 336 6.4 12.9 0.00 0.00 0.00 25 996.2
20260503221605 21 348 9.7 16.1 0.00 0.00 0.00 24 996.0
20260503220121 21 344 8.0 20.9 0.00 0.00 0.00 25 996.0
20260503214558 21 27 9.7 19.3 0.00 0.00 0.00 26 996.2
20260503213058 21 330 6.4 14.5 0.00 0.00 0.00 26 996.4
20260503211555 20 355 6.4 20.9 0.00 0.00 0.00 27 996.3
20260503210053 20 342 6.4 14.5 0.00 0.00 0.00 29 996.6
20260503204551 20 321 9.7 25.7 0.00 0.00 0.00 28 996.8
20260503203054 20 346 11.3 17.7 0.00 0.00 0.00 28 996.9
20260503201548 20 332 9.7 25.7 0.00 0.00 0.00 29 997.0
20260503200046 20 334 8.0 17.7 0.00 0.00 0.00 29 997.2
20260503194545 19 299 9.7 19.3 0.00 0.00 0.00 29 997.3
20260503193046 19 355 9.7 19.3 0.00 0.00 0.00 30 997.3
20260503191541 19 311 11.3 20.9 0.00 0.00 0.00 32 997.4
20260503190046 18 287 9.7 20.9 0.00 0.00 0.00 33 997.5
20260503184542 18 334 12.9 22.5 0.00 0.00 0.00 33 997.6
20260503183037 18 313 11.3 20.9 0.00 0.00 0.00 34 997.7
20260503181535 18 29 11.3 19.3 0.00 0.00 0.00 37 997.8
20260503180044 18 28 8.0 17.7 0.00 0.00 0.00 37 997.8
20260503174535 18 308 12.9 22.5 0.00 0.00 0.00 38 997.9
20260503173030 18 28 9.7 17.7 0.00 0.00 0.00 40 998.0
20260503171530 18 319 9.7 19.3 0.00 0.00 0.00 42 998.1